Location: Caltech
(34.1382°N, 118.1253°W)
Time: 12:06:46
(UTC-08:00)

Aureole 3 Rocket - Visible Passes

Search period start: 10 February 2016 00:00
Search period end: 20 February 2016 00:00
Orbit: 400 x 1747 km, 82.5° (Epoch: 10 February)

Date Brightness Start Highest point End Pass type
(mag) Time Alt. Az. Time Alt. Az. Time Alt. Az.
10 Feb 6.5 03:05:57 17° NNE 03:05:57 17° NNE 03:07:46 10° N visible
10 Feb 6.4 04:52:43 11° NNW 04:52:43 11° NNW 04:53:22 10° NNW visible
11 Feb 6.9 02:13:58 12° NNE 02:13:58 12° NNE 02:14:41 10° NNE visible
11 Feb 6.3 04:00:43 17° NNW 04:00:43 17° NNW 04:02:38 10° N visible
12 Feb 6.5 03:08:43 18° N 03:08:43 18° N 03:10:40 10° N visible
13 Feb 6.9 02:16:42 14° NNE 02:16:42 14° NNE 02:17:56 10° NNE visible
13 Feb 6.5 04:03:29 15° NNW 04:03:29 15° NNW 04:05:10 10° NNW visible
14 Feb 6.5 03:11:28 18° N 03:11:28 18° N 03:13:29 10° N visible
15 Feb 6.8 02:19:27 16° NNE 02:19:27 16° NNE 02:21:02 10° NNE visible
15 Feb 6.6 04:06:12 14° NNW 04:06:12 14° NNW 04:07:34 10° NNW visible
16 Feb 7.2 01:27:25 11° NNE 01:27:25 11° NNE 01:27:45 10° NNE visible
16 Feb 6.6 03:14:11 17° N 03:14:11 17° N 03:16:13 10° N visible
17 Feb 6.8 02:22:09 17° N 02:22:09 17° N 02:24:01 10° N visible
17 Feb 6.7 04:08:55 12° NNW 04:08:55 12° NNW 04:09:46 10° NNW visible
18 Feb 7.1 01:30:07 13° NNE 01:30:07 13° NNE 01:31:05 10° NNE visible
18 Feb 6.7 03:16:54 17° NNW 03:16:54 17° NNW 03:18:52 10° N visible
19 Feb 6.8 02:24:52 18° N 02:24:52 18° N 02:26:54 10° N visible
19 Feb 6.8 04:11:37 10° NNW 04:11:37 10° NNW 04:11:38 10° NNW visible
